Location: Bridgewater
(44.3670°N, 64.5170°W)
Time: 02:14:24
(UTC-03:00)

Amateur Radio Satellites - All Passes

Search period start: 29 August 2014 01:44
Search period end: 30 August 2014 01:44
Location: Bridgewater, 44.3670°N, 64.5170°W

Satellite Date Start Highest point End Downlink Frequencies (MHz)
Time Altitude Azimuth
PCSat 29 Aug 02:12:52 02:17:56 38° 49° (NE) 02:22:57 145.825 MHz
Saudisat 1A 29 Aug 02:19:55 02:21:31 12° 331° (NNW) 02:23:08 436.775 MHz
Oscar 19 29 Aug 02:25:02 02:29:53 38° 97° (E) 02:34:41 437.125 CW, 437.150 USB
ITAMSAT 1 29 Aug 02:52:48 02:57:21 30° 96° (E) 03:01:52 435.822 SSB
Oscar 16 29 Aug 02:59:20 03:04:34 80° 104° (ESE) 03:09:46 437.025 USB, Beacon 2401.1428
Uribyol 2 29 Aug 03:03:06 03:07:58 40° 98° (E) 03:12:50 436.500 FM
AO-Echo 29 Aug 03:09:04 03:13:36 45° 99° (E) 03:18:06 ?
JAS-1B 29 Aug 03:13:51 03:20:27 43° 96° (E) 03:26:07 435.800 - 435.900 CW/SSB
KITSAT 1 29 Aug 03:18:14 03:24:38 25° 330° (NNW) 03:31:03 435.175 FM
AO-27 29 Aug 03:20:55 03:26:02 55° 101° (E) 03:31:06 436.795 MHz FM
Sapphire 29 Aug 03:26:20 03:31:45 68° 242° (WSW) 03:37:07 437.095 MHz 1200 baud AX-25 AFSK
Gurwin Techsat 1B 29 Aug 03:37:24 03:42:17 36° 97° (E) 03:47:09 435.225 FM
PCSat 29 Aug 03:56:23 04:01:19 36° 248° (WSW) 04:06:14 145.825 MHz
Oscar 19 29 Aug 04:04:37 04:09:06 30° 295° (WNW) 04:13:34 437.125 CW, 437.150 USB
OPAL 29 Aug 04:19:12 04:24:06 52° 68° (ENE) 04:29:05 ?
SO-50 29 Aug 04:19:28 04:23:21 30° 115° (ESE) 04:27:20 436.795 FM
TMSAT-1 29 Aug 04:30:03 04:35:23 79° 103° (ESE) 04:40:40 436.925 FM
ITAMSAT 1 29 Aug 04:32:09 04:36:52 37° 293° (WNW) 04:41:35 435.822 SSB
Oscar 16 29 Aug 04:40:15 04:43:16 16° 302° (WNW) 04:46:16 437.025 USB, Beacon 2401.1428
Uribyol 2 29 Aug 04:42:53 04:47:17 29° 295° (WNW) 04:51:41 436.500 FM
AO-Echo 29 Aug 04:48:34 04:52:05 21° 297° (WNW) 04:55:35 ?
AO-7 29 Aug 04:52:10 04:59:30 34° 96° (E) 05:06:45 29.400 - 29.500 MHz
AO-27 29 Aug 05:01:18 05:05:09 22° 298° (WNW) 05:09:01 436.795 MHz FM
JAS-1B 29 Aug 05:04:40 05:10:56 34° 300° (WNW) 05:16:23 435.800 - 435.900 CW/SSB
Gurwin Techsat 1B 29 Aug 05:17:31 05:22:10 32° 294° (WNW) 05:26:49 435.225 FM
KITSAT 1 29 Aug 05:19:08 05:23:31 15° 360° (N) 05:27:54 435.175 FM
Uosat F 29 Aug 05:36:04 05:41:03 64° 102° (ESE) 05:46:01 435.120 FM
JAS-2 29 Aug 05:54:41 05:55:56 11° 88° (E) 05:57:12 435.800 - 435.900 CW/SSB, 435.910 FM
OPAL 29 Aug 05:59:32 06:03:17 21° 266° (W) 06:07:06 ?
SO-50 29 Aug 05:59:38 06:03:49 37° 314° (NW) 06:08:06 436.795 FM
STRAND 1 29 Aug 06:01:08 06:04:56 22° 62° (ENE) 06:08:44 ?
TMSAT-1 29 Aug 06:11:30 06:14:39 16° 301° (WNW) 06:17:48 436.925 FM
Hamsat 29 Aug 06:23:40 06:26:57 21° 92° (E) 06:30:13 145.90 MHz
UOSAT-12 29 Aug 06:29:21 06:33:46 47° 119° (ESE) 06:38:17 437.025 FM, 437.400 FM
RS-15 29 Aug 06:34:54 06:39:33 14° 95° (E) 06:44:09 29.354 - 29.394 USB, Beacon 29.352 USB
AO-7 29 Aug 06:44:34 06:52:40 60° 296° (WNW) 07:00:43 29.400 - 29.500 MHz
Uosat F 29 Aug 07:16:02 07:19:21 18° 300° (WNW) 07:22:39 435.120 FM
KITSAT 1 29 Aug 07:16:03 07:22:26 25° 30° (NNE) 07:28:47 435.175 FM
Saudisat 1A 29 Aug 07:22:36 07:26:28 28° 44° (NE) 07:30:18 436.775 MHz
JAS-2 29 Aug 07:36:32 07:41:46 89° 105° (ESE) 07:47:18 435.800 - 435.900 CW/SSB, 435.910 FM
STRAND 1 29 Aug 07:38:47 07:43:45 53° 260° (W) 07:48:45 ?
Hamsat 29 Aug 07:59:00 08:03:04 39° 290° (WNW) 08:07:05 145.90 MHz
UOSAT-12 29 Aug 08:10:08 08:14:08 27° 318° (NW) 08:18:12 437.025 FM, 437.400 FM
SO-67 29 Aug 08:33:02 08:36:31 87° 102° (ESE) 08:39:59 435.3500 MHz FM
HO-68 29 Aug 08:37:38 08:38:36 10° 84° (E) 08:39:34 435.675 MHz FM
RS-15 29 Aug 08:38:40 08:49:32 65° 117° (ESE) 09:00:15 29.354 - 29.394 USB, Beacon 29.352 USB
AO-7 29 Aug 08:39:21 08:43:47 16° 317° (NW) 08:48:12 29.400 - 29.500 MHz
Saudisat 1A 29 Aug 09:02:01 09:06:09 39° 242° (WSW) 09:10:14 436.775 MHz
KITSAT 1 29 Aug 09:11:13 09:19:20 73° 54° (NE) 09:27:23 435.175 FM
JAS-2 29 Aug 09:23:53 09:26:12 13° 303° (WNW) 09:28:34 435.800 - 435.900 CW/SSB, 435.910 FM
UKube-1 29 Aug 09:38:54 09:40:54 13° 90° (E) 09:42:54 145.840 MHz, 145.915 MHz
Oscar 11 29 Aug 09:47:54 09:48:43 10° 88° (E) 09:49:32 145.825 FM, Beacon 2401.500 USB
HO-68 29 Aug 10:20:33 10:27:40 64° 103° (ESE) 10:34:45 435.675 MHz FM
RS-15 29 Aug 10:52:03 11:02:27 46° 322° (NW) 11:12:52 29.354 - 29.394 USB, Beacon 29.352 USB
ISS 29 Aug 10:52:49 10:54:29 13° 132° (SE) 10:56:08 145.800 FM
KITSAT 1 29 Aug 11:07:33 11:14:01 27° 255° (WSW) 11:20:28 435.175 FM
SO-50 29 Aug 11:09:57 11:11:44 12° 28° (NNE) 11:13:32 436.795 FM
UKube-1 29 Aug 11:13:13 11:17:31 63° 287° (WNW) 11:21:48 145.840 MHz, 145.915 MHz
Oscar 11 29 Aug 11:21:03 11:25:27 78° 285° (WNW) 11:29:48 145.825 FM, Beacon 2401.500 USB
FUNcube-1 29 Aug 11:41:55 11:46:26 72° 102° (ESE) 11:51:00 145.950 - 145.970 MHz USB
HO-68 29 Aug 12:08:59 12:14:53 29° 302° (WNW) 12:20:47 435.675 MHz FM
JAS-1B 29 Aug 12:13:07 12:17:24 14° 47° (NE) 12:21:29 435.800 - 435.900 CW/SSB
ISS 29 Aug 12:27:26 12:30:46 89° 329° (NNW) 12:34:07 145.800 FM
Oscar 16 29 Aug 12:40:40 12:44:17 20° 61° (ENE) 12:47:55 437.025 USB, Beacon 2401.1428
Uribyol 2 29 Aug 12:48:00 12:49:09 11° 54° (NE) 12:50:17 436.500 FM
SO-50 29 Aug 12:48:51 12:53:28 47° 49° (NE) 12:58:08 436.795 FM
AO-Echo 29 Aug 12:49:43 12:50:25 10° 56° (ENE) 12:51:06 ?
AO-27 29 Aug 13:04:19 13:07:07 15° 58° (ENE) 13:09:55 436.795 MHz FM
RS-15 29 Aug 13:09:49 13:18:30 26° 355° (N) 13:27:17 29.354 - 29.394 USB, Beacon 29.352 USB
UOSAT-12 29 Aug 13:18:20 13:21:00 15° 31° (NNE) 13:23:39 437.025 FM, 437.400 FM
FUNcube-1 29 Aug 13:19:57 13:22:17 14° 299° (WNW) 13:24:37 145.950 - 145.970 MHz USB
Gurwin Techsat 1B 29 Aug 13:25:25 13:26:18 10° 54° (NE) 13:27:12 435.225 FM
MaSat-1 29 Aug 13:34:45 13:38:57 30° 106° (ESE) 13:43:22 437.345 MHz
Oscar 19 29 Aug 13:43:25 13:48:31 64° 72° (ENE) 13:53:39 437.125 CW, 437.150 USB
JAS-1B 29 Aug 13:56:52 14:06:12 53° 66° (ENE) 14:14:35 435.800 - 435.900 CW/SSB
ISS 29 Aug 14:04:56 14:07:50 27° 348° (NNW) 14:10:45 145.800 FM
AO-7 29 Aug 14:05:49 14:09:41 14° 41° (NE) 14:13:32 29.400 - 29.500 MHz
ITAMSAT 1 29 Aug 14:12:19 14:17:20 54° 71° (ENE) 14:22:22 435.822 SSB
TMSAT-1 29 Aug 14:14:33 14:18:24 21° 61° (ENE) 14:22:16 436.925 FM
Oscar 16 29 Aug 14:18:04 14:23:10 61° 259° (WSW) 14:28:19 437.025 USB, Beacon 2401.1428
Uribyol 2 29 Aug 14:22:34 14:27:41 71° 73° (ENE) 14:32:50 436.500 FM
AO-Echo 29 Aug 14:23:20 14:28:22 73° 74° (ENE) 14:33:16 ?
SO-50 29 Aug 14:29:53 14:33:49 26° 247° (WSW) 14:37:46 436.795 FM
AO-27 29 Aug 14:40:45 14:45:56 84° 256° (WSW) 14:51:09 436.795 MHz FM
UOSAT-12 29 Aug 14:57:21 15:02:05 65° 52° (NE) 15:06:43 437.025 FM, 437.400 FM
Gurwin Techsat 1B 29 Aug 15:00:01 15:05:16 67° 73° (ENE) 15:10:33 435.225 FM
MaSat-1 29 Aug 15:11:08 15:15:49 41° 305° (NW) 15:20:42 437.345 MHz
Uosat F 29 Aug 15:15:02 15:17:49 15° 58° (ENE) 15:20:36 435.120 FM
Oscar 19 29 Aug 15:25:00 15:28:19 17° 270° (W) 15:31:39 437.125 CW, 437.150 USB
RS-15 29 Aug 15:25:14 15:35:10 36° 30° (NNE) 15:45:18 29.354 - 29.394 USB, Beacon 29.352 USB
ISS 29 Aug 15:42:28 15:45:17 24° 8° (N) 15:48:05 145.800 FM
JAS-1B 29 Aug 15:47:28 15:56:42 45° 263° (W) 16:05:11 435.800 - 435.900 CW/SSB
AO-7 29 Aug 15:52:38 16:00:37 53° 63° (ENE) 16:08:37 29.400 - 29.500 MHz
TMSAT-1 29 Aug 15:52:41 15:57:53 59° 259° (W) 16:03:08 436.925 FM
ITAMSAT 1 29 Aug 15:53:23 15:57:09 20° 268° (W) 16:00:57 435.822 SSB
Uribyol 2 29 Aug 16:04:44 16:07:41 15° 270° (W) 16:10:40 436.500 FM
AO-Echo 29 Aug 16:05:02 16:07:37 14° 270° (W) 16:10:11 ?
AO-27 29 Aug 16:25:15 16:26:14 11° 273° (W) 16:27:12 436.795 MHz FM
OPAL 29 Aug 16:29:51 16:31:37 12° 90° (E) 16:33:22 ?
Sapphire 29 Aug 16:30:35 16:32:17 11° 102° (ESE) 16:33:59 437.095 MHz 1200 baud AX-25 AFSK
UOSAT-12 29 Aug 16:38:42 16:41:43 17° 250° (WSW) 16:44:42 437.025 FM, 437.400 FM
Gurwin Techsat 1B 29 Aug 16:42:20 16:45:44 17° 270° (W) 16:49:08 435.225 FM
Uosat F 29 Aug 16:50:57 16:55:58 79° 256° (WSW) 17:01:00 435.120 FM
PCSat 29 Aug 16:57:23 17:01:31 23° 107° (ESE) 17:05:40 145.825 MHz
Hamsat 29 Aug 17:18:59 17:22:04 19° 64° (ENE) 17:25:09 145.90 MHz
ISS 29 Aug 17:19:09 17:22:28 64° 28° (NNE) 17:25:47 145.800 FM
RS-15 29 Aug 17:37:54 17:49:02 89° 237° (WSW) 18:00:35 29.354 - 29.394 USB, Beacon 29.352 USB
AO-7 29 Aug 17:46:01 17:53:37 38° 262° (W) 18:01:16 29.400 - 29.500 MHz
JAS-2 29 Aug 17:50:18 17:56:08 46° 70° (ENE) 18:01:23 435.800 - 435.900 CW/SSB, 435.910 FM
Oscar 10/S400 29 Aug 17:58:55 18:14:50 31° 145° (SE) 18:40:23 145.825 - 145.975 CW/USB, Beacon 145.810 USB
OPAL 29 Aug 18:05:56 18:11:12 88° 107° (ESE) 18:16:25 ?
Sapphire 29 Aug 18:09:24 18:14:48 81° 119° (ESE) 18:20:15 437.095 MHz 1200 baud AX-25 AFSK
PCSat 29 Aug 18:39:11 18:44:31 57° 306° (NW) 18:49:53 145.825 MHz
Hamsat 29 Aug 18:53:35 18:57:42 44° 262° (W) 19:01:53 145.90 MHz
ISS 29 Aug 18:56:26 18:58:56 20° 225° (SW) 19:01:25 145.800 FM
SO-67 29 Aug 19:07:39 19:10:50 35° 72° (ENE) 19:14:01 435.3500 MHz FM
HO-68 29 Aug 19:08:24 19:11:13 13° 46° (NE) 19:14:02 435.675 MHz FM
JAS-2 29 Aug 19:36:11 19:41:22 28° 265° (W) 19:46:09 435.800 - 435.900 CW/SSB, 435.910 FM
OPAL 29 Aug 19:46:29 19:49:22 15° 305° (NW) 19:52:14 ?
STRAND 1 29 Aug 19:47:38 19:52:32 45° 99° (E) 19:57:24 ?
RS-15 29 Aug 19:51:44 19:59:55 25° 258° (WSW) 20:08:23 29.354 - 29.394 USB, Beacon 29.352 USB
Sapphire 29 Aug 19:54:52 19:58:53 21° 320° (NW) 20:02:56 437.095 MHz 1200 baud AX-25 AFSK
PCSat 29 Aug 20:26:25 20:29:09 14° 328° (NNW) 20:31:54 145.825 MHz
UKube-1 29 Aug 20:36:08 20:38:41 16° 61° (ENE) 20:41:15 145.840 MHz, 145.915 MHz
SO-67 29 Aug 20:42:03 20:44:01 14° 268° (W) 20:46:00 435.3500 MHz FM
Oscar 11 29 Aug 20:44:44 20:46:13 12° 59° (ENE) 20:47:42 145.825 FM, Beacon 2401.500 USB
HO-68 29 Aug 20:50:31 20:57:26 56° 67° (ENE) 21:04:23 435.675 MHz FM
STRAND 1 29 Aug 21:27:22 21:31:28 25° 297° (WNW) 21:35:34 ?
MaSat-1 29 Aug 21:51:21 21:53:45 14° 40° (NE) 21:56:02 437.345 MHz
UKube-1 29 Aug 22:10:09 22:14:26 59° 259° (WSW) 22:18:45 145.840 MHz, 145.915 MHz
Oscar 11 29 Aug 22:17:25 22:21:45 82° 257° (WSW) 22:26:08 145.825 FM, Beacon 2401.500 USB
HO-68 29 Aug 22:39:21 22:45:28 30° 265° (W) 22:51:37 435.675 MHz FM
FUNcube-1 29 Aug 22:40:03 22:44:11 68° 74° (ENE) 22:48:26 145.950 - 145.970 MHz USB
Saudisat 1A 29 Aug 23:09:50 23:13:50 35° 117° (ESE) 23:17:51 436.775 MHz
MaSat-1 29 Aug 23:26:58 23:31:42 80° 62° (ENE) 23:35:46 437.345 MHz
KITSAT 1 29 Aug 23:41:31 23:48:50 40° 110° (ESE) 23:56:11 435.175 FM
FUNcube-1 30 Aug 00:19:52 00:21:06 11° 272° (W) 00:22:21 145.950 - 145.970 MHz USB
Saudisat 1A 30 Aug 00:49:29 00:53:26 31° 315° (NW) 00:57:25 436.775 MHz
MaSat-1 30 Aug 01:06:55 01:07:44 11° 263° (W) 01:08:32 437.345 MHz
Sapphire 30 Aug 01:13:17 01:17:08 19° 39° (NE) 01:20:58 437.095 MHz 1200 baud AX-25 AFSK
